sat.trackr.live / text

‹ back to catalog

STARLINK-5782

NORAD 56034 · 2023-042BA

PAYLOAD ACTIVE UNKNOWN

§ Identity

Operator
Country
US
Launch date
2023-03-24
Launch site
AFETR
Launch vehicle
Mass (kg)
RCS (m²)

Purposes: comms

External: N2YO · Heavens-Above · Gunter

§ Orbital elements

Epoch: 2026-05-24T22:29:07.118880Z

Period
94.27 min
Inclination
43.0039°
Eccentricity
0.0001432
Mean motion
15.27573935 rev/d
Perigee alt
482.1 km
Apogee alt
484.0 km
Semi-major
6,861.2 km
B*
1.7265e-5
RAAN
334.8565°
Arg perigee
270.5646°
Mean anomaly
89.5042°
Rev number
17,469

§ Raw data

STARLINK-57821 56034U 23042BA  26144.93688795  .00000213  00000+0  17265-4 0  99912 56034  43.0039 334.8565 0001432 270.5646  89.5042 15.27573935174695

JSON: /api/v1/satellites/56034 · /tle

For live sub-satellite position, see the globe view (requires WebGL).

§ Visibility from observer

Set your observer location to see the next 7 days of passes ≥ 10°. The values pass through the URL so the page stays shareable.

No JS? Fill the form by hand. The geolocation button needs JavaScript.